This is the latest recevied weather packets stored in our database for station/object OE3MHU-13. If no packets are shown the sender has not sent any weather packets the latest 10 day(s).
| Time | Temp. | Humidity | Pressure | Rain* | Wind** | Luminosity | Snow |
|---|---|---|---|---|---|---|---|
| 1777862922 | 14.44° C | 63% | 1015.8 hPa | 0 mm | - | - | - |
| 1777862616 | 15° C | 62% | 1015.9 hPa | 0 mm | - | - | - |
| 1777862310 | 15° C | 60% | 1015.8 hPa | 0 mm | - | - | - |
| 1777862004 | 15° C | 59% | 1015.8 hPa | 0 mm | - | - | - |
| 1777861698 | 15.56° C | 59% | 1015.7 hPa | 0 mm | - | - | - |
| 1777861392 | 15° C | 59% | 1015.7 hPa | 0 mm | - | - | - |
| 1777861087 | 15° C | 59% | 1015.7 hPa | 0 mm | - | - | - |
| 1777860781 | 15.56° C | 58% | 1015.8 hPa | 0 mm | - | - | - |
| 1777860474 | 15.56° C | 58% | 1015.8 hPa | 0 mm | - | - | - |
| 1777859862 | 15.56° C | 57% | 1015.8 hPa | 0 mm | - | - | - |
| 1777859556 | 15.56° C | 57% | 1015.7 hPa | 0 mm | - | - | - |
| 1777859251 | 15.56° C | 56% | 1015.7 hPa | 0 mm | - | - | - |
| 1777858944 | 16.11° C | 56% | 1015.7 hPa | 0 mm | - | - | - |
| 1777858641 | 16.11° C | 54% | 1015.7 hPa | 0 mm | - | - | - |
| 1777858341 | 16.67° C | 54% | 1015.5 hPa | 0 mm | - | - | - |
| 1777858041 | 16.67° C | 53% | 1015.5 hPa | 0 mm | - | - | - |
| 1777857741 | 16.67° C | 53% | 1015.4 hPa | 0 mm | - | - | - |
| 1777857441 | 16.67° C | 53% | 1015.5 hPa | 0 mm | - | - | - |
| 1777857140 | 16.67° C | 52% | 1015.5 hPa | 0 mm | - | - | - |
| 1777856840 | 16.67° C | 52% | 1015.5 hPa | 0 mm | - | - | - |
| 1777856541 | 17.22° C | 52% | 1015.4 hPa | 0 mm | - | - | - |
| 1777856241 | 16.67° C | 52% | 1015.4 hPa | 0 mm | - | - | - |
| 1777855941 | 16.67° C | 52% | 1015.3 hPa | 0 mm | - | - | - |
| 1777855638 | 16.67° C | 52% | 1015.3 hPa | 0 mm | - | - | - |
| 1777855339 | 17.22° C | 51% | 1015.3 hPa | 0 mm | - | - | - |
* Rain latest hour (hover to see other rain measurements)
** Current wind speed in m/s (hover to see current wind gust speed)